Location: Emerald Isle
(34.6779°N, 76.9508°W)
Time: 22:19:18
(UTC-04:00)

OTV 5 (USA 277) - Visible Passes

Search period start: 20 July 2018 00:00
Search period end: 30 July 2018 00:00
Orbit: 312 x 321 km, 54.5° (Epoch: 05 July)

Date Brightness Start Highest point End Pass type
(mag) Time Alt. Az. Time Alt. Az. Time Alt. Az.
26 Jul ? 05:23:52 10° S 05:26:13 27° SE 05:28:35 10° ENE visible
27 Jul ? 05:37:54 10° SW 05:40:35 73° NW 05:43:17 10° NE visible
28 Jul ? 04:21:14 15° ESE 04:21:14 15° ESE 04:22:39 10° E visible
29 Jul ? 04:35:23 52° ESE 04:35:23 52° ESE 04:37:53 10° NE visible
